NETSAT-3

Last updated on Sun Jun 21 2026 00:03:50 GMT+0000 (Coordinated Universal Time)

1 46505U 20068V 26171.43899838 .00016213 00000+0 37245-3 0 9991 2 46505 97.8657 178.1532 0003730 347.9901 12.1255 15.42775919316182
UTC large
Height (km)
Speed (km/s)
/
Latitude / Longitude
Inclination (degrees)
Orbital Period (minutes)
Azimuth
Elevation
Range (km)
Doppler Factor

Next 0 passes for location: London (51.5072 / 0.1276)

No passes found over London.
NETSAT-3